Regional Weather Roundup
Issued by NWS

Home | Current Version | Previous Version | Text Only | Print | Product List | Glossary Off
Versions: 1 2 3 4 5 6 7 8 9 10 11 12 13 14 15 16 17 18 19 20 21 22 23 24 25 26 27 28 29 30 31 32 33 34 35 36 37 38 39 40 41 42 43 44 45 46 47 48 49 50

000
ASUS43 KMPX 240501
RWRMN
WEATHER ROUNDUP FOR MINNESOTA
NATIONAL WEATHER SERVICE TWIN CITIES/CHANHASSEN MN
1200 AM CDT SAT JUN 24 2017


NOTE: "FAIR" INDICATES FEW OR NO CLOUDS BELOW 12,000 FEET WITH NO
SIGNIFICANT WEATHER AND/OR OBSTRUCTIONS TO VISIBILITY. N/A MEANS
CURRENT SKY AND/OR WEATHER CONDITIONS ARE NOT AVAILABLE.

MNZ060>063-068>070-240600-
   Twin Cities Metro

CITY           SKY/WX    TMP DP  RH WIND       PRES   REMARKS
TWIN CITIES    MOCLDY    62  48  60 NW8       29.94R
ST PAUL        CLOUDY    63  49  60 NW13      29.94R
CRYSTAL        PTCLDY    61  45  55 NW9       29.93R
BLAINE         PTCLDY    63  48  59 W10       29.94R
LAKEVILLE      PTCLDY    59  50  72 W8        29.95R
EDEN PRAIRIE   PTCLDY    62  48  60 NW13      29.94R
SOUTH ST PAUL  CLOUDY    64  47  55 NW10G18   29.94R
LAKE ELMO      CLOUDY    61  50  67 NW8       29.94R
$$
MNZ001>005-007-008-013>017-022>024-027-028-240600-
   Northwest Minnesota

CITY           SKY/WX    TMP DP  RH WIND       PRES   REMARKS
BEMIDJI        CLOUDY    52  45  77 W8        29.94S
HALLOCK        CLOUDY    55  45  67 W8        29.94F
ROSEAU           N/A     54  46  76 W9        29.91S
WARROAD        CLOUDY    54  48  82 W8        29.90F
CROOKSTON      CLOUDY    54  43  66 NW9       29.98S
FOSSTON        CLOUDY    48  39  71 W9        29.97S
DETROIT LAKES  MOCLDY    54  39  58 NW12G17   30.00S
MOORHEAD       PTCLDY    54  39  58 NW8       30.01F
PARK RAPIDS    CLOUDY    55  38  52 NW13      29.96S
MAHNOMEN       CLOUDY    52  40  64 W8        29.98S
$$
MNZ006-009>011-018-025>026-240600-
   North Central Minnesota

CITY           SKY/WX    TMP DP  RH WIND       PRES   REMARKS
BAUDETTE       CLOUDY    53  49  86 W13       29.89R
FLAG ISLAND    CLOUDY    54  50  87 W13       29.87S
INTL FALLS     CLOUDY    53  50  89 W10       29.86S
WASKISH        CLOUDY    55  48  76 W10       29.91S
BIG FORK       CLOUDY    54  46  76 W7        29.90S
LONGVILLE      PTCLDY    54  46  76 NW3       29.94R
GRAND RAPIDS   CLOUDY    55  47  74 NW9G18    29.92S
CRANE LAKE     CLOUDY    54  50  87 W6        29.86S
ORR            CLOUDY    52  48  87 W10       29.85R
COOK           CLOUDY    54  48  82 W8G18     29.88R
WALKER         CLOUDY    50  47  88 W5        29.95S
$$
MNZ012-019>021-037-240600-
   Northeast Minnesota

CITY           SKY/WX    TMP DP  RH WIND       PRES   REMARKS
DULUTH         MOCLDY    53  50  89 NW9       29.86R
ELY            CLOUDY    54  52  94 W10       29.84R
HIBBING        CLOUDY    52  48  86 NW15G22   29.88S
EVELETH        CLOUDY    54  46  75 NW14G20   29.88R
DULUTH HARBOR  CLOUDY    61  52  72 W12G17    29.86R
TWO HARBORS    MOCLDY    61  52  72 NW8G16    29.80S
SILVER BAY     LGT RAIN  57  54  88 NW8       29.79R
GRAND MARAIS     N/A     61  53  75 N8G24     29.74S
G MARAIS ARPRT CLOUDY    54  46  76 W7        29.79R
$$
MNZ029>031-032-039>041-046>048-054>057-064-240600-
   West Central Minnesota

CITY           SKY/WX    TMP DP  RH WIND       PRES   REMARKS
FERGUS FALLS   PTCLDY    54  43  66 NW12      30.00R
WHEATON        PTCLDY    55  41  58 W9        30.05R
MORRIS         CLEAR     54  43  66 NW8       30.02R
ALEXANDRIA     CLEAR     56  43  61 NW10G20   30.01R
ELBOW LAKE     MOCLDY    53  42  65 NW9       30.02R
WADENA         CLOUDY    54  41  62 NW8       29.98R
GLENWOOD       PTCLDY    55  43  62 NW14      30.01R
APPLETON       CLEAR     54  45  71 W6        30.03R
BENSON         CLEAR     54  43  66 N8        30.04R
ORTONVILLE     CLEAR     57  43  58 NW8       30.04R
MADISON        CLEAR     57  45  62 W7        30.05R
WILLMAR        FAIR      57  46  67 NW12      30.02R
$$
MNZ033>034-036-042>043-049>051-058-059-240600-
   Central Minnesota

CITY           SKY/WX    TMP DP  RH WIND       PRES   REMARKS
ST CLOUD       PTCLDY    57  47  69 W9        29.95S
SAUK CENTRE    CLOUDY    58  43  56 NW9G16    29.99R
PAYNESVILLE    CLOUDY    53  46  77 W7        29.99R
AITKIN         CLEAR     52  46  82 W3        29.92S
PINE RIVER     PTCLDY    52  46  82 W5        29.98R
BRAINERD       MOCLDY    56  48  74 NW7       29.95S
STAPLES        CLOUDY    55  39  54 NW13      29.97R
LONG PRAIRIE   CLOUDY    55  43  62 W9        29.98S
LITTLE FALLS   CLOUDY    54  45  71 NW5       29.96S
LITCHFIELD     CLOUDY    59  52  77 W3        29.99R
BUFFALO        CLEAR     59  46  61 W6        29.97R
MAPLE LAKE     CLEAR     58  48  69 CALM      29.97S
HUTCHINSON     PTCLDY    54  50  85 W6        30.00R
$$
MNZ037-044-045-052-053-240600-
   East Central Minnesota

CITY           SKY/WX    TMP DP  RH WIND       PRES   REMARKS
PRINCETON      PTCLDY    55  48  76 W3        29.95R
MORA           CLOUDY    57  45  62 NW8G16    29.94R
CAMBRIDGE      PTCLDY    61  46  59 W8        29.92R
RUSH CITY      CLOUDY    55  50  82 N3        29.93R
MOOSE LAKE     CLOUDY    55  46  71 NW5       29.89R
HINCKLEY       FAIR      55  50  82 NW5       29.92R
CLOQUET        CLOUDY    54  46  76 W7        29.88S
MCGREGOR       CLEAR     54  46  76 W7        29.92S
$$
MNZ071>073-080-081-089-090-097-098-240600-
   Southwest Minnesota

CITY           SKY/WX    TMP DP  RH WIND       PRES   REMARKS
MONTEVIDEO     CLEAR     55  43  62 N7        30.04R
GRANITE FALLS  CLEAR     56  46  70 W8        30.05R
CANBY          PTCLDY    53  44  72 CALM      30.07R
MARSHALL       CLEAR     54  44  69 NW10      30.06R
REDWOOD FALLS  PTCLDY    55  44  66 W9        30.02R
OLIVIA         PTCLDY    54  45  71 NW8       30.01R
PIPESTONE      CLEAR     55  41  58 NW8       30.08R
WINDOM         CLEAR     54  46  76 W8        30.04S
WORTHINGTON    CLEAR     53  43  68 W7        30.07R
JACKSON        CLEAR     54  46  76 CALM      30.05S
TRACY          CLEAR     57  44  63 W7        30.05R
SLAYTON        CLEAR     53  42  66 W8        30.07R
$$
MNZ065>067-074>077-082>085-091>093-240600-
   South Central Minnesota

CITY           SKY/WX    TMP DP  RH WIND       PRES   REMARKS
MANKATO        MOCLDY    58  49  72 W8        30.00R
NEW ULM        PTCLDY    55  48  76 W9        30.01R
ST JAMES       PTCLDY    55  48  76 W9        30.03R
FAIRMONT       PTCLDY    57  49  74 W9        30.03R
GLENCOE        CLEAR     57  51  78 W5        29.98R
FARIBAULT      PTCLDY    59  52  77 W9        29.97R
OWATONNA       MOCLDY    59  52  77 W10       29.98R
WASECA         MOCLDY    55  50  82 W7        30.01R
ALBERT LEA     PTCLDY    59  48  67 W6        30.00R
$$
MNZ078>079-086>088-094>096-240600-
   Southeast Minnesota

CITY           SKY/WX    TMP DP  RH WIND       PRES   REMARKS
ROCHESTER      CLOUDY    58  52  80 W10       29.96R
RED WING       PTCLDY    63  46  55 NW7       29.92R
STANTON        CLOUDY    62  51  69 W8        29.94R
DODGE CENTER   MOCLDY    59  52  77 W12G17    29.97R
WINONA         CLOUDY    61  54  77 W5        29.92R
AUSTIN         PTCLDY    59  50  72 W10       29.98R
PRESTON        PTCLDY    58  51  78 W13       29.96R
$$
ABBREVIATIONS USED IN REMARKS
   TC - TEMPERATURES IN CELSIUS
  WCI - WIND CHILL INDEX
   HX - HEAT INDEX
  VSB - VISIBILITY
$$



USA.gov is the U.S. government's official web portal to all federal, state and local government web resources and services.